STARLINK-3807, 52353

Orbit data source: Space-Track

STARLINK-3807, 52353 is a payload satellite owned by SpaceX/Seattle (US) in LEO that was launched on Fri, 29 Apr 2022 UTC via an FALCON 9 launch vehicle from the Air Force Eastern Test Range (AFETR). Payload-class satellites include a variety of spacecraft equipped with specific instruments for various scientific and technological missions. These include communications satellites like Starlink; space stations such as the ISS; scientific satellites like the Hubble; Earth observation satellites from companies like Planet Labs, Umbra, and HawkEye 360; GPS; miniature CubeSats for education and research; and military/defense satellites.

Loading next visibility...
Identifier
52353, 2022-045Y
Orbit
LEO
Country
Flag of USUS
Related business
Manufacturer
SpaceX/Seattle
Mission
Operational Commercial Communications
Bus & Motor
STARLINK, Unknown motor
Mass
297 kg wet, ~275 kg dry
Launch date (UTC)
2022-04-29 (4 years ago)
Launch vehicle
FALCON 9
Launch site
Air Force Eastern Test Range (AFETR)
Object type
Payload
Rocket body
Debris
Shape & HBR
Box + 1 Pan, 10.1 m
Radar Cross Section
11.087 m², Large (>1 m²)

Expand to show TLE details & history
Last TLE update: 2 days ago

TLE from 2 days ago
0 STARLINK-3807
1 52353U 22045Y   26171.23195356  .00032516  00000-0  20365-2 0  9997
2 52353  53.1601  98.6750 0002603 143.9251 216.1916 15.09110189231262
Epoch: 2026-06-20T05:34Z
TLE epoch observation values (Epoch: 2026-06-20T05:34:00.787Z)
Latitude
-0.00007°
Longitude
106.72213°
Altitude
541.262 km
Speed
7.592 km/s
True Right ascension
06h 34m 41s
True Declination
0° 00' 00"
Sunlit
Object was in daylight at epoch
Visualization orbit readout
Latitude
Unknown
Longitude
Unknown
Altitude
Unknown
Speed
Unknown
Apparent Right ascension
Unknown
Apparent Declination
Unknown
Sunlit
N/A
Visualization observer readout
Local Sidereal Time
21:41:28
Azimuth
Unknown
Elevation
Unknown
Doppler factor
Unknown
Orbital elements
Apogee altitude
540.972 km
Perigee altitude
537.371 km
Semi-major axis
6,917.309 km
Eccentricity
0.00026
Inclination
53.1601°
RAAN
98.675°
Arg. of periapsis
143.9251°
True anomaly
216.17399°
Mean anomaly
216.1916°
Eccentric anomaly
216.1828°
Mean motion
3.77257 °/min
Orbital period
95.43 mins
BSTAR
0.0020365
Loading maneuver chart data...
Computing Atmospheric mass density...
Loading historical data...
Loading historical data...
Loading historical data...
Loading historical data...
Loading historical data...
Loading historical data...
Loading historical data...

Documentation

Showing up to 5 results
|